TimeAEST,TemperatureF,Dew PointF,Humidity,Sea Level PressureIn,VisibilityMPH,Wind Direction,Wind SpeedMPH,Gust SpeedMPH,PrecipitationIn,Events,Conditions,WindDirDegrees,DateUTC
12:00 AM,76,75,94,29.73,,West,4.6,,,,,280,2013-11-24 14:00:00
12:00 AM,75.2,75.2,100,29.71,6.2,West,4.6,-,N/A,,Mostly Cloudy,280,2013-11-24 14:00:00
12:30 AM,77.0,75.2,94,29.71,6.2,NE,6.9,-,N/A,,Mostly Cloudy,50,2013-11-24 14:30:00
1:00 AM,76,75,94,29.74,,West,5.8,,,,,270,2013-11-24 15:00:00
1:00 AM,77.0,75.2,94,29.74,6.2,West,5.8,-,N/A,,Mostly Cloudy,270,2013-11-24 15:00:00
1:30 AM,77.0,73.4,89,29.71,6.2,WNW,3.5,-,N/A,,Mostly Cloudy,290,2013-11-24 15:30:00
2:00 AM,77.0,71.6,83,29.71,6.2,West,5.8,-,N/A,Rain,Light Rain Showers,270,2013-11-24 16:00:00
2:30 AM,77.0,71.6,83,29.71,6.2,West,5.8,-,N/A,,Mostly Cloudy,270,2013-11-24 16:30:00
3:00 AM,75,73,93,29.70,,SW,2.3,,,,,230,2013-11-24 17:00:00
3:00 AM,75.2,73.4,94,29.68,6.2,SW,2.3,-,N/A,,Mostly Cloudy,230,2013-11-24 17:00:00
3:30 AM,75.2,73.4,94,29.68,6.2,Calm,Calm,-,N/A,,Mostly Cloudy,0,2013-11-24 17:30:00
4:00 AM,75,73,93,29.69,,West,3.5,,,,,270,2013-11-24 18:00:00
4:00 AM,75.2,73.4,94,29.68,-9999.0,West,3.5,-,N/A,,Unknown,270,2013-11-24 18:00:00
4:30 AM,75.2,73.4,94,29.68,6.2,Calm,Calm,-,N/A,,Mostly Cloudy,0,2013-11-24 18:30:00
5:00 AM,75.2,73.4,94,29.68,6.2,WNW,3.5,-,N/A,Rain,Light Rain Showers,290,2013-11-24 19:00:00
5:30 AM,75.2,73.4,94,29.68,6.2,West,3.5,-,N/A,Rain,Light Rain Showers,280,2013-11-24 19:30:00
6:00 AM,75,74,95,29.71,16,Calm,Calm,,,,Partly Cloudy,,2013-11-24 20:00:00
6:00 AM,75.2,73.4,94,29.71,6.2,Calm,Calm,-,N/A,,Mostly Cloudy,0,2013-11-24 20:00:00
6:30 AM,77.0,73.4,89,29.71,6.2,NW,4.6,-,N/A,,Mostly Cloudy,310,2013-11-24 20:30:00
7:00 AM,76,73,88,29.74,,West,2.3,,,,,270,2013-11-24 21:00:00
7:00 AM,77.0,73.4,89,29.71,6.2,West,2.3,-,N/A,,Mostly Cloudy,270,2013-11-24 21:00:00
7:30 AM,78.8,73.4,83,29.71,6.2,West,4.6,-,N/A,,Mostly Cloudy,260,2013-11-24 21:30:00
8:00 AM,78.8,73.4,83,29.71,6.2,NW,4.6,-,N/A,,Mostly Cloudy,310,2013-11-24 22:00:00
8:30 AM,82.4,73.4,74,29.74,6.2,WNW,6.9,-,N/A,,Mostly Cloudy,290,2013-11-24 22:30:00
9:00 AM,83,74,67,29.73,19,NNW,10.4,,,,Partly Cloudy,330,2013-11-24 23:00:00
9:00 AM,82.4,73.4,74,29.71,6.2,NNW,10.4,-,N/A,,Mostly Cloudy,330,2013-11-24 23:00:00
9:30 AM,84.2,73.4,70,29.71,6.2,NNW,8.1,-,N/A,,Mostly Cloudy,330,2013-11-24 23:30:00
10:00 AM,84,73,63,29.73,,NW,8.1,,,,,320,2013-11-25 00:00:00
10:00 AM,84.2,73.4,70,29.71,6.2,NW,8.1,-,N/A,,Mostly Cloudy,320,2013-11-25 00:00:00
10:30 AM,84.2,73.4,70,29.71,6.2,North,12.7,-,N/A,,Mostly Cloudy,360,2013-11-25 00:30:00
11:00 AM,84.2,73.4,70,29.68,6.2,North,12.7,-,N/A,,Mostly Cloudy,350,2013-11-25 01:00:00
11:30 AM,84.2,73.4,70,29.68,6.2,North,12.7,-,N/A,,Mostly Cloudy,360,2013-11-25 01:30:00
12:00 PM,83,74,66,29.69,19,North,10.4,,,,Partly Cloudy,350,2013-11-25 02:00:00
12:00 PM,82.4,73.4,74,29.68,6.2,North,10.4,-,N/A,,Overcast,350,2013-11-25 02:00:00
12:30 PM,80.6,75.2,84,29.68,6.2,NNW,6.9,-,N/A,Rain,Light Rain,340,2013-11-25 02:30:00
1:00 PM,84,77,73,29.67,,North,5.8,,,,,350,2013-11-25 03:00:00
1:00 PM,84.2,77.0,79,29.65,6.2,North,5.8,-,N/A,,Mostly Cloudy,350,2013-11-25 03:00:00
1:30 PM,84.2,77.0,79,29.65,6.2,North,9.2,-,N/A,,Mostly Cloudy,10,2013-11-25 03:30:00
2:00 PM,84.2,75.2,74,29.62,6.2,North,11.5,-,N/A,,Mostly Cloudy,10,2013-11-25 04:00:00
2:30 PM,82.4,75.2,79,29.62,6.2,North,9.2,-,N/A,,Mostly Cloudy,10,2013-11-25 04:30:00
3:00 PM,83,77,76,29.62,19,North,11.5,,,,Partly Cloudy,10,2013-11-25 05:00:00
3:00 PM,82.4,77.0,84,29.62,6.2,North,11.5,-,N/A,,Mostly Cloudy,10,2013-11-25 05:00:00
3:30 PM,82.4,77.0,84,29.62,6.2,North,10.4,-,N/A,,Mostly Cloudy,360,2013-11-25 05:30:00
3:55 PM,80.6,77.0,89,29.62,6.2,North,11.5,-,N/A,Thunderstorm,Mostly Cloudy,350,2013-11-25 05:55:00
4:04 PM,80.6,77.0,89,29.62,6.2,North,10.4,-,N/A,Rain-Thunderstorm,Light Thunderstorms and Rain,350,2013-11-25 06:04:00
4:17 PM,78.8,77.0,94,29.65,1.9,North,17.3,29.9,N/A,Rain-Thunderstorm,Thunderstorms and Rain,350,2013-11-25 06:17:00
4:30 PM,78.8,77.0,94,29.65,1.2,NW,12.7,-,N/A,Rain-Thunderstorm,Thunderstorms and Rain,310,2013-11-25 06:30:00
4:47 PM,77.0,75.2,94,29.68,3.7,NW,10.4,-,N/A,Rain,Light Rain,310,2013-11-25 06:47:00
5:00 PM,75.2,75.2,100,29.68,4.3,WNW,9.2,-,N/A,Rain,Light Rain Showers,290,2013-11-25 07:00:00
5:30 PM,75.2,75.2,100,29.68,5.0,WNW,9.2,-,N/A,Rain,Light Rain Showers,290,2013-11-25 07:30:00
6:00 PM,75,74,94,29.68,,West,5.8,,,,Overcast,270,2013-11-25 08:00:00
6:00 PM,75.2,73.4,94,29.68,5.0,West,5.8,-,N/A,Rain,Light Rain Showers,270,2013-11-25 08:00:00
6:30 PM,75.2,75.2,100,29.68,6.2,SSE,3.5,-,N/A,,Mostly Cloudy,150,2013-11-25 08:30:00
7:00 PM,75,74,96,29.70,,WSW,1.2,,,,,250,2013-11-25 09:00:00
7:00 PM,75.2,73.4,94,29.68,6.2,WSW,1.2,-,N/A,Rain,Light Rain Showers,250,2013-11-25 09:00:00
7:30 PM,75.2,73.4,94,29.68,6.2,Calm,Calm,-,N/A,Rain,Light Rain Showers,0,2013-11-25 09:30:00
8:00 PM,75.2,73.4,94,29.71,6.2,Calm,Calm,-,N/A,Rain,Light Rain Showers,0,2013-11-25 10:00:00
8:30 PM,75.2,73.4,94,29.71,6.2,SSE,11.5,-,N/A,Rain,Light Rain Showers,150,2013-11-25 10:30:00
9:00 PM,76,72,84,29.73,,South,8.1,,,,,170,2013-11-25 11:00:00
9:00 PM,77.0,71.6,83,29.71,6.2,South,8.1,-,N/A,Rain,Light Rain Showers,170,2013-11-25 11:00:00
9:30 PM,75.2,73.4,94,29.71,6.2,SSE,8.1,-,N/A,Rain,Light Rain Showers,150,2013-11-25 11:30:00
10:00 PM,76,73,88,29.73,,SE,9.2,,,,,140,2013-11-25 12:00:00
10:00 PM,75.2,73.4,94,29.71,6.2,SE,9.2,-,N/A,Rain,Light Rain,140,2013-11-25 12:00:00
10:30 PM,75.2,73.4,94,29.74,1.9,WNW,4.6,-,N/A,Rain,Rain,290,2013-11-25 12:30:00
11:00 PM,75.2,73.4,94,29.71,5.0,South,6.9,-,N/A,Rain,Light Rain,170,2013-11-25 13:00:00
11:30 PM,73.4,73.4,100,29.71,4.3,West,6.9,-,N/A,Rain,Rain,270,2013-11-25 13:30:00